Year,Month,Day,Hour,Minute,Value (Times are PST for temperature in C)
2017,08,18,00,00,17.40
2017,08,18,00,01,17.40
2017,08,18,00,02,17.40
2017,08,18,00,03,17.40
2017,08,18,00,04,17.40
2017,08,18,00,05,17.40
2017,08,18,00,06,17.40
2017,08,18,00,07,17.30
2017,08,18,00,08,17.30
2017,08,18,00,09,17.30
2017,08,18,00,10,17.30
2017,08,18,00,11,17.20
2017,08,18,00,12,17.20
2017,08,18,00,13,17.20
2017,08,18,00,14,17.10
2017,08,18,00,15,17.10
2017,08,18,00,16,17.10
2017,08,18,00,17,17.00
2017,08,18,00,18,16.90
2017,08,18,00,19,16.90
2017,08,18,00,20,16.90
2017,08,18,00,21,16.90
2017,08,18,00,22,16.80
2017,08,18,00,23,16.80
2017,08,18,00,24,16.80
2017,08,18,00,25,16.80
2017,08,18,00,26,16.80
2017,08,18,00,27,16.70
2017,08,18,00,28,16.70
2017,08,18,00,29,16.70
2017,08,18,00,30,16.70
2017,08,18,00,31,16.70
2017,08,18,00,32,16.70
2017,08,18,00,33,16.60
2017,08,18,00,34,16.60
2017,08,18,00,35,16.60
2017,08,18,00,36,16.60
2017,08,18,00,37,16.60
2017,08,18,00,38,16.60
2017,08,18,00,39,16.60
2017,08,18,00,40,16.60
2017,08,18,00,41,16.60
2017,08,18,00,42,16.60
2017,08,18,00,43,16.60
2017,08,18,00,44,16.60
2017,08,18,00,45,16.50
2017,08,18,00,46,16.50
2017,08,18,00,47,16.50
2017,08,18,00,48,16.50
2017,08,18,00,49,16.50
2017,08,18,00,50,16.50
2017,08,18,00,51,16.40
2017,08,18,00,52,16.40
2017,08,18,00,53,16.40
2017,08,18,00,54,16.40
2017,08,18,00,55,16.40
2017,08,18,00,56,16.40
2017,08,18,00,57,16.50
2017,08,18,00,58,16.50
2017,08,18,00,59,16.60
2017,08,18,01,00,16.60
2017,08,18,01,01,16.60
2017,08,18,01,02,16.60
2017,08,18,01,03,16.70
2017,08,18,01,04,16.70
2017,08,18,01,05,16.70
2017,08,18,01,06,16.70
2017,08,18,01,07,16.70
2017,08,18,01,08,16.70
2017,08,18,01,09,16.70
2017,08,18,01,10,16.80
2017,08,18,01,11,16.80
2017,08,18,01,12,16.90
2017,08,18,01,13,16.90
2017,08,18,01,14,17.00
2017,08,18,01,15,17.00
2017,08,18,01,16,17.10
2017,08,18,01,17,17.10
2017,08,18,01,18,17.20
2017,08,18,01,19,17.20
2017,08,18,01,20,17.20
2017,08,18,01,21,17.20
2017,08,18,01,22,17.20
2017,08,18,01,23,17.30
2017,08,18,01,24,17.30
2017,08,18,01,25,17.30
2017,08,18,01,26,17.40
2017,08,18,01,27,17.40
2017,08,18,01,28,17.50
2017,08,18,01,29,17.50
2017,08,18,01,30,17.50
2017,08,18,01,31,17.50
2017,08,18,01,32,17.50
2017,08,18,01,33,17.50
2017,08,18,01,34,17.50
2017,08,18,01,35,17.40
2017,08,18,01,36,17.40
2017,08,18,01,37,17.30
2017,08,18,01,38,17.30
2017,08,18,01,39,17.20
2017,08,18,01,40,17.10
2017,08,18,01,41,17.10
2017,08,18,01,42,17.00
2017,08,18,01,43,16.90
2017,08,18,01,44,16.80
2017,08,18,01,45,16.80
2017,08,18,01,46,16.70
2017,08,18,01,47,16.70
2017,08,18,01,48,16.70
2017,08,18,01,49,16.70
2017,08,18,01,50,16.60
2017,08,18,01,51,16.60
2017,08,18,01,52,16.60
2017,08,18,01,53,16.60
2017,08,18,01,54,16.60
2017,08,18,01,55,16.60
2017,08,18,01,56,16.60
2017,08,18,01,57,16.50
2017,08,18,01,58,16.40
2017,08,18,01,59,16.40
2017,08,18,02,00,16.30
2017,08,18,02,01,16.30
2017,08,18,02,02,16.30
2017,08,18,02,03,16.30
2017,08,18,02,04,16.30
2017,08,18,02,05,16.30
2017,08,18,02,06,16.30
2017,08,18,02,07,16.30
2017,08,18,02,08,16.30
2017,08,18,02,09,16.20
2017,08,18,02,10,16.20
2017,08,18,02,11,16.20
2017,08,18,02,12,16.20
2017,08,18,02,13,16.20
2017,08,18,02,14,16.20
2017,08,18,02,15,16.30
2017,08,18,02,16,16.30
2017,08,18,02,17,16.30
2017,08,18,02,18,16.30
2017,08,18,02,19,16.40
2017,08,18,02,20,16.40
2017,08,18,02,21,16.40
2017,08,18,02,22,16.40
2017,08,18,02,23,16.50
2017,08,18,02,24,16.50
2017,08,18,02,25,16.50
2017,08,18,02,26,16.60
2017,08,18,02,27,16.60
2017,08,18,02,28,16.60
2017,08,18,02,29,16.60
2017,08,18,02,30,16.60
2017,08,18,02,31,16.60
2017,08,18,02,32,16.60
2017,08,18,02,33,16.70
2017,08,18,02,34,16.70
2017,08,18,02,35,16.70
2017,08,18,02,36,16.70
2017,08,18,02,37,16.70
2017,08,18,02,38,16.70
2017,08,18,02,39,16.70
2017,08,18,02,40,16.70
2017,08,18,02,41,16.70
2017,08,18,02,42,16.70
2017,08,18,02,43,16.70
2017,08,18,02,44,16.70
2017,08,18,02,45,16.70
2017,08,18,02,46,16.70
2017,08,18,02,47,16.70
2017,08,18,02,48,16.70
2017,08,18,02,49,16.70
2017,08,18,02,50,16.70
2017,08,18,02,51,16.70
2017,08,18,02,52,16.70
2017,08,18,02,53,16.70
2017,08,18,02,54,16.70
2017,08,18,02,55,16.70
2017,08,18,02,56,16.70
2017,08,18,02,57,16.70
2017,08,18,02,58,16.70
2017,08,18,02,59,16.70
2017,08,18,03,00,16.60
2017,08,18,03,01,16.60
2017,08,18,03,02,16.60
2017,08,18,03,03,16.60
2017,08,18,03,04,16.60
2017,08,18,03,05,16.60
2017,08,18,03,06,16.50
2017,08,18,03,07,16.50
2017,08,18,03,08,16.50
2017,08,18,03,09,16.50
2017,08,18,03,10,16.50
2017,08,18,03,11,16.40
2017,08,18,03,12,16.40
2017,08,18,03,13,16.40
2017,08,18,03,14,16.40
2017,08,18,03,15,16.40
2017,08,18,03,16,16.50
2017,08,18,03,17,16.50
2017,08,18,03,18,16.50
2017,08,18,03,19,16.50
2017,08,18,03,20,16.50
2017,08,18,03,21,16.50
2017,08,18,03,22,16.50
2017,08,18,03,23,16.50
2017,08,18,03,24,16.50
2017,08,18,03,25,16.50
2017,08,18,03,26,16.50
2017,08,18,03,27,16.50
2017,08,18,03,28,16.50
2017,08,18,03,29,16.50
2017,08,18,03,30,16.50
2017,08,18,03,31,16.50
2017,08,18,03,32,16.50
2017,08,18,03,33,16.50
2017,08,18,03,34,16.50
2017,08,18,03,35,16.50
2017,08,18,03,36,16.50
2017,08,18,03,37,16.50
2017,08,18,03,38,16.60
2017,08,18,03,39,16.60
2017,08,18,03,40,16.60
2017,08,18,03,41,16.60
2017,08,18,03,42,16.60
2017,08,18,03,43,16.60
2017,08,18,03,44,16.60
2017,08,18,03,45,16.60
2017,08,18,03,46,16.60
2017,08,18,03,47,16.60
2017,08,18,03,48,16.60
2017,08,18,03,49,16.60
2017,08,18,03,50,16.60
2017,08,18,03,51,16.50
2017,08,18,03,52,16.50
2017,08,18,03,53,16.50
2017,08,18,03,54,16.50
2017,08,18,03,55,16.50
2017,08,18,03,56,16.50
2017,08,18,03,57,16.40
2017,08,18,03,58,16.40
2017,08,18,03,59,16.30
2017,08,18,04,00,16.30
2017,08,18,04,01,16.30
2017,08,18,04,02,16.20
2017,08,18,04,03,16.20
2017,08,18,04,04,16.20
2017,08,18,04,05,16.20
2017,08,18,04,06,16.10
2017,08,18,04,07,16.10
2017,08,18,04,08,16.10
2017,08,18,04,09,16.10
2017,08,18,04,10,16.10
2017,08,18,04,11,16.00
2017,08,18,04,12,16.00
2017,08,18,04,13,16.00
2017,08,18,04,14,16.00
2017,08,18,04,15,16.00
2017,08,18,04,16,16.00
2017,08,18,04,17,16.00
2017,08,18,04,18,16.00
2017,08,18,04,19,16.00
2017,08,18,04,20,16.00
2017,08,18,04,21,16.10
2017,08,18,04,22,16.10
2017,08,18,04,23,16.10
2017,08,18,04,24,16.10
2017,08,18,04,25,16.10
2017,08,18,04,26,16.20
2017,08,18,04,27,16.20
2017,08,18,04,28,16.30
2017,08,18,04,29,16.30
2017,08,18,04,30,16.30
2017,08,18,04,31,16.40
2017,08,18,04,32,16.40
2017,08,18,04,33,16.50
2017,08,18,04,34,16.60
2017,08,18,04,35,16.60
2017,08,18,04,36,16.70
2017,08,18,04,37,16.70
2017,08,18,04,38,16.80
2017,08,18,04,39,16.90
2017,08,18,04,40,16.90
2017,08,18,04,41,17.00
2017,08,18,04,42,17.00
2017,08,18,04,43,17.10
2017,08,18,04,44,17.10
2017,08,18,04,45,17.10
2017,08,18,04,46,17.10
2017,08,18,04,47,17.10
2017,08,18,04,48,17.00
2017,08,18,04,49,17.00
2017,08,18,04,50,17.00
2017,08,18,04,51,16.90
2017,08,18,04,52,16.90
2017,08,18,04,53,16.90
2017,08,18,04,54,16.90
2017,08,18,04,55,16.90
2017,08,18,04,56,16.80
2017,08,18,04,57,16.80
2017,08,18,04,58,16.80
2017,08,18,04,59,16.80
2017,08,18,05,00,16.80
2017,08,18,05,01,16.80
2017,08,18,05,02,16.70
2017,08,18,05,03,16.70
2017,08,18,05,04,16.70
2017,08,18,05,05,16.70
2017,08,18,05,06,16.70
2017,08,18,05,07,16.60
2017,08,18,05,08,16.60
2017,08,18,05,09,16.60
2017,08,18,05,10,16.60
2017,08,18,05,11,16.60
2017,08,18,05,12,16.60
2017,08,18,05,13,16.60
2017,08,18,05,14,16.60
2017,08,18,05,15,16.50
2017,08,18,05,16,16.50
2017,08,18,05,17,16.50
2017,08,18,05,18,16.50
2017,08,18,05,19,16.50
2017,08,18,05,20,16.50
2017,08,18,05,21,16.50
2017,08,18,05,22,16.50
2017,08,18,05,23,16.50
2017,08,18,05,24,16.60
2017,08,18,05,25,16.60
2017,08,18,05,26,16.60
2017,08,18,05,27,16.60
2017,08,18,05,28,16.60
2017,08,18,05,29,16.60
2017,08,18,05,30,16.60
2017,08,18,05,31,16.60
2017,08,18,05,32,16.60
2017,08,18,05,33,16.60
2017,08,18,05,34,16.60
2017,08,18,05,35,16.60
2017,08,18,05,36,16.60
2017,08,18,05,37,16.50
2017,08,18,05,38,16.50
2017,08,18,05,39,16.50
2017,08,18,05,40,16.40
2017,08,18,05,41,16.40
2017,08,18,05,42,16.40
2017,08,18,05,43,16.40
2017,08,18,05,44,16.40
2017,08,18,05,45,16.40
2017,08,18,05,46,16.30
2017,08,18,05,47,16.30
2017,08,18,05,48,16.30
2017,08,18,05,49,16.30
2017,08,18,05,50,16.30
2017,08,18,05,51,16.30
2017,08,18,05,52,16.30
2017,08,18,05,53,16.30
2017,08,18,05,54,16.30
2017,08,18,05,55,16.30
2017,08,18,05,56,16.30
2017,08,18,05,57,16.30
2017,08,18,05,58,16.30
2017,08,18,05,59,16.30
2017,08,18,06,00,16.30
2017,08,18,06,01,16.30
2017,08,18,06,02,16.30
2017,08,18,06,03,16.30
2017,08,18,06,04,16.30
2017,08,18,06,05,16.30
2017,08,18,06,06,16.20
2017,08,18,06,07,16.30
2017,08,18,06,08,16.30
2017,08,18,06,09,16.30
2017,08,18,06,10,16.20
2017,08,18,06,11,16.30
2017,08,18,06,12,16.20
2017,08,18,06,13,16.20
2017,08,18,06,14,16.30
2017,08,18,06,15,16.30
2017,08,18,06,16,16.30
2017,08,18,06,17,16.30
2017,08,18,06,18,16.30
2017,08,18,06,19,16.30
2017,08,18,06,20,16.30
2017,08,18,06,21,16.30
2017,08,18,06,22,16.30
2017,08,18,06,23,16.30
2017,08,18,06,24,16.30
2017,08,18,06,25,16.30
2017,08,18,06,26,16.40
2017,08,18,06,27,16.40
2017,08,18,06,28,16.40
2017,08,18,06,29,16.40
2017,08,18,06,30,16.40
2017,08,18,06,31,16.40
2017,08,18,06,32,16.40
2017,08,18,06,33,16.40
2017,08,18,06,34,16.40
2017,08,18,06,35,16.40
2017,08,18,06,36,16.40
2017,08,18,06,37,16.40
2017,08,18,06,38,16.40
2017,08,18,06,39,16.40
2017,08,18,06,40,16.40
2017,08,18,06,41,16.50
2017,08,18,06,42,16.50
2017,08,18,06,43,16.50
2017,08,18,06,44,16.50
2017,08,18,06,45,16.50
2017,08,18,06,46,16.50
2017,08,18,06,47,16.50
2017,08,18,06,48,16.50
2017,08,18,06,49,16.50
2017,08,18,06,50,16.50
2017,08,18,06,51,16.50
2017,08,18,06,52,16.50
2017,08,18,06,53,16.50
2017,08,18,06,54,16.50
2017,08,18,06,55,16.60
2017,08,18,06,56,16.60
2017,08,18,06,57,16.60
2017,08,18,06,58,16.60
2017,08,18,06,59,16.60
2017,08,18,07,00,16.60
2017,08,18,07,01,16.60
2017,08,18,07,02,16.60
2017,08,18,07,03,16.60
2017,08,18,07,04,16.70
2017,08,18,07,05,16.70
2017,08,18,07,06,16.70
2017,08,18,07,07,16.70
2017,08,18,07,08,16.60
2017,08,18,07,09,16.60
2017,08,18,07,10,16.60
2017,08,18,07,11,16.60
2017,08,18,07,12,16.60
2017,08,18,07,13,16.60
2017,08,18,07,14,16.60
2017,08,18,07,15,16.60
2017,08,18,07,16,16.50
2017,08,18,07,17,16.50
2017,08,18,07,18,16.50
2017,08,18,07,19,16.50
2017,08,18,07,20,16.50
2017,08,18,07,21,16.40
2017,08,18,07,22,16.40
2017,08,18,07,23,16.40
2017,08,18,07,24,16.40
2017,08,18,07,25,16.40
2017,08,18,07,26,16.40
2017,08,18,07,27,16.40
2017,08,18,07,28,16.40
2017,08,18,07,29,16.40
2017,08,18,07,30,16.40
2017,08,18,07,31,16.30
2017,08,18,07,32,16.30
2017,08,18,07,33,16.40
2017,08,18,07,34,16.40
2017,08,18,07,35,16.40
2017,08,18,07,36,16.40
2017,08,18,07,37,16.40
2017,08,18,07,38,16.40
2017,08,18,07,39,16.40
2017,08,18,07,40,16.40
2017,08,18,07,41,16.40
2017,08,18,07,42,16.40
2017,08,18,07,43,16.40
2017,08,18,07,44,16.40
2017,08,18,07,45,16.40
2017,08,18,07,46,16.40
2017,08,18,07,47,16.40
2017,08,18,07,48,16.40
2017,08,18,07,49,16.40
2017,08,18,07,50,16.40
2017,08,18,07,51,16.40
2017,08,18,07,52,16.50
2017,08,18,07,53,16.50
2017,08,18,07,54,16.50
2017,08,18,07,55,16.50
2017,08,18,07,56,16.50
2017,08,18,07,57,16.60
2017,08,18,07,58,16.60
2017,08,18,07,59,16.60
2017,08,18,08,00,16.60
2017,08,18,08,01,16.60
2017,08,18,08,02,16.60
2017,08,18,08,03,16.60
2017,08,18,08,04,16.60
2017,08,18,08,05,16.60
2017,08,18,08,06,16.60
2017,08,18,08,07,16.60
2017,08,18,08,08,16.60
2017,08,18,08,09,16.60
2017,08,18,08,10,16.60
2017,08,18,08,11,16.70
2017,08,18,08,12,16.70
2017,08,18,08,13,16.70
2017,08,18,08,14,16.70
2017,08,18,08,15,16.70
2017,08,18,08,16,16.80
2017,08,18,08,17,16.80
2017,08,18,08,18,16.80
2017,08,18,08,19,16.80
2017,08,18,08,20,16.80
2017,08,18,08,21,16.80
2017,08,18,08,22,16.90
2017,08,18,08,23,16.90
2017,08,18,08,24,16.90
2017,08,18,08,25,16.90
2017,08,18,08,26,16.90
2017,08,18,08,27,16.90
2017,08,18,08,28,16.90
2017,08,18,08,29,16.90
2017,08,18,08,30,16.90
2017,08,18,08,31,17.00
2017,08,18,08,32,17.00
2017,08,18,08,33,17.00
2017,08,18,08,34,17.00
2017,08,18,08,35,17.10
2017,08,18,08,36,17.10
2017,08,18,08,37,17.10
2017,08,18,08,38,17.10
2017,08,18,08,39,17.10
2017,08,18,08,40,17.10
2017,08,18,08,41,17.10
2017,08,18,08,42,17.10
2017,08,18,08,43,17.20
2017,08,18,08,44,17.20
2017,08,18,08,45,17.20
2017,08,18,08,46,17.20
2017,08,18,08,47,17.20
2017,08,18,08,48,17.20
2017,08,18,08,49,17.20
2017,08,18,08,50,17.30
2017,08,18,08,51,17.30
2017,08,18,08,52,17.30
2017,08,18,08,53,17.30
2017,08,18,08,54,17.30
2017,08,18,08,55,17.30
2017,08,18,08,56,17.30
2017,08,18,08,57,17.30
2017,08,18,08,58,17.30
2017,08,18,08,59,17.40
2017,08,18,09,00,17.40
2017,08,18,09,01,17.40
2017,08,18,09,02,17.30
2017,08,18,09,03,17.40
2017,08,18,09,04,17.30
2017,08,18,09,05,17.30
2017,08,18,09,06,17.30
2017,08,18,09,07,17.30
2017,08,18,09,08,17.30
2017,08,18,09,09,17.30
2017,08,18,09,10,17.30
2017,08,18,09,11,17.30
2017,08,18,09,12,17.30
2017,08,18,09,13,17.30
2017,08,18,09,14,17.30
2017,08,18,09,15,17.30
2017,08,18,09,16,17.30
2017,08,18,09,17,17.30
2017,08,18,09,18,17.30
2017,08,18,09,19,17.30
2017,08,18,09,20,17.30
2017,08,18,09,21,17.30
2017,08,18,09,22,17.30
2017,08,18,09,23,17.30
2017,08,18,09,24,17.40
2017,08,18,09,25,17.40
2017,08,18,09,26,17.40
2017,08,18,09,27,17.40
2017,08,18,09,28,17.40
2017,08,18,09,29,17.40
2017,08,18,09,30,17.50
2017,08,18,09,31,17.50
2017,08,18,09,32,17.50
2017,08,18,09,33,17.50
2017,08,18,09,34,17.50
2017,08,18,09,35,17.50
2017,08,18,09,36,17.50
2017,08,18,09,37,17.60
2017,08,18,09,38,17.60
2017,08,18,09,39,17.60
2017,08,18,09,40,17.60
2017,08,18,09,41,17.70
2017,08,18,09,42,17.70
2017,08,18,09,43,17.70
2017,08,18,09,44,17.70
2017,08,18,09,45,17.80
2017,08,18,09,46,17.70
2017,08,18,09,47,17.70
2017,08,18,09,48,17.70
2017,08,18,09,49,17.70
2017,08,18,09,50,17.70
2017,08,18,09,51,17.70
2017,08,18,09,52,17.70
2017,08,18,09,53,17.70
2017,08,18,09,54,17.70
2017,08,18,09,55,17.70
2017,08,18,09,56,17.70
2017,08,18,09,57,17.70
2017,08,18,09,58,17.60
2017,08,18,09,59,17.60
2017,08,18,10,00,17.70
2017,08,18,10,01,17.70
2017,08,18,10,02,17.70
2017,08,18,10,03,17.70
2017,08,18,10,04,17.70
2017,08,18,10,05,17.80
2017,08,18,10,06,17.80
2017,08,18,10,07,17.90
2017,08,18,10,08,18.00
2017,08,18,10,09,18.20
2017,08,18,10,10,18.30
2017,08,18,10,11,18.40
2017,08,18,10,12,18.50
2017,08,18,10,13,18.60
2017,08,18,10,14,18.70
2017,08,18,10,15,18.70
2017,08,18,10,16,18.80
2017,08,18,10,17,18.80
2017,08,18,10,18,18.80
2017,08,18,10,19,18.70
2017,08,18,10,20,18.70
2017,08,18,10,21,18.70
2017,08,18,10,22,18.70
2017,08,18,10,23,18.70
2017,08,18,10,24,18.70
2017,08,18,10,25,18.80
2017,08,18,10,26,18.80
2017,08,18,10,27,18.70
2017,08,18,10,28,18.70
2017,08,18,10,29,18.70
2017,08,18,10,30,18.70
2017,08,18,10,31,18.60
2017,08,18,10,32,18.60
2017,08,18,10,33,18.60
2017,08,18,10,34,18.60
2017,08,18,10,35,18.60
2017,08,18,10,36,18.60
2017,08,18,10,37,18.60
2017,08,18,10,38,18.60
2017,08,18,10,39,18.50
2017,08,18,10,40,18.50
2017,08,18,10,41,18.50
2017,08,18,10,42,18.50
2017,08,18,10,43,18.40
2017,08,18,10,44,18.50
2017,08,18,10,45,18.50
2017,08,18,10,46,18.60
2017,08,18,10,47,18.60
2017,08,18,10,48,18.60
2017,08,18,10,49,18.60
2017,08,18,10,50,18.60
2017,08,18,10,51,18.60
2017,08,18,10,52,18.60
2017,08,18,10,53,18.60
2017,08,18,10,54,18.60
2017,08,18,10,55,18.60
2017,08,18,10,56,18.70
2017,08,18,10,57,18.70
2017,08,18,10,58,18.70
2017,08,18,10,59,18.70
2017,08,18,11,00,18.70
2017,08,18,11,01,18.70
2017,08,18,11,02,18.70
2017,08,18,11,03,18.70
2017,08,18,11,04,18.70
2017,08,18,11,05,18.70
2017,08,18,11,06,18.70
2017,08,18,11,07,18.70
2017,08,18,11,08,18.70
2017,08,18,11,09,18.70
2017,08,18,11,10,18.70
2017,08,18,11,11,18.60
2017,08,18,11,12,18.70
2017,08,18,11,13,18.70
2017,08,18,11,14,18.70
2017,08,18,11,15,18.70
2017,08,18,11,16,18.70
2017,08,18,11,17,18.80
2017,08,18,11,18,18.80
2017,08,18,11,19,18.80
2017,08,18,11,20,18.80
2017,08,18,11,21,18.80
2017,08,18,11,22,18.80
2017,08,18,11,23,18.80
2017,08,18,11,24,18.90
2017,08,18,11,25,18.90
2017,08,18,11,26,19.00
2017,08,18,11,27,19.10
2017,08,18,11,28,19.10
2017,08,18,11,29,19.10
2017,08,18,11,30,19.10
2017,08,18,11,31,19.00
2017,08,18,11,32,19.00
2017,08,18,11,33,19.00
2017,08,18,11,34,19.10
2017,08,18,11,35,19.10
2017,08,18,11,36,19.00
2017,08,18,11,37,19.00
2017,08,18,11,38,18.90
2017,08,18,11,39,18.90
2017,08,18,11,40,18.90
2017,08,18,11,41,19.00
2017,08,18,11,42,19.00
2017,08,18,11,43,19.10
2017,08,18,11,44,19.10
2017,08,18,11,45,19.10
2017,08,18,11,46,19.10
2017,08,18,11,47,19.10
2017,08,18,11,48,19.10
2017,08,18,11,49,19.10
2017,08,18,11,50,19.10
2017,08,18,11,51,19.10
2017,08,18,11,52,19.10
2017,08,18,11,53,19.10
2017,08,18,11,54,19.10
2017,08,18,11,55,19.10
2017,08,18,11,56,19.20
2017,08,18,11,57,19.20
2017,08,18,11,58,19.20
2017,08,18,11,59,19.10
2017,08,18,12,00,19.10
2017,08,18,12,01,19.10
2017,08,18,12,02,19.10
2017,08,18,12,03,19.10
2017,08,18,12,04,19.10
2017,08,18,12,05,19.10
2017,08,18,12,06,19.10
2017,08,18,12,07,19.10
2017,08,18,12,08,19.10
2017,08,18,12,09,19.10
2017,08,18,12,10,19.10
2017,08,18,12,11,19.10
2017,08,18,12,12,19.10
2017,08,18,12,13,19.10
2017,08,18,12,14,19.10
2017,08,18,12,15,19.10
2017,08,18,12,16,19.20
2017,08,18,12,17,19.20
2017,08,18,12,18,19.20
2017,08,18,12,19,19.10
2017,08,18,12,20,19.10
2017,08,18,12,21,19.10
2017,08,18,12,22,19.20
2017,08,18,12,23,19.20
2017,08,18,12,24,19.20
2017,08,18,12,25,19.20
2017,08,18,12,26,19.20
2017,08,18,12,27,19.20
2017,08,18,12,28,19.20
2017,08,18,12,29,19.30
2017,08,18,12,30,19.30
2017,08,18,12,31,19.30
2017,08,18,12,32,19.30
2017,08,18,12,33,19.30
2017,08,18,12,34,19.30
2017,08,18,12,35,19.30
2017,08,18,12,36,19.30
2017,08,18,12,37,19.30
2017,08,18,12,38,19.30
2017,08,18,12,39,19.30
2017,08,18,12,40,19.30
2017,08,18,12,41,19.30
2017,08,18,12,42,19.20
2017,08,18,12,43,19.20
2017,08,18,12,44,19.10
2017,08,18,12,45,19.00
2017,08,18,12,46,19.00
2017,08,18,12,47,18.90
2017,08,18,12,48,18.90
2017,08,18,12,49,18.80
2017,08,18,12,50,18.80
2017,08,18,12,51,18.80
2017,08,18,12,52,18.70
2017,08,18,12,53,18.70
2017,08,18,12,54,18.60
2017,08,18,12,55,18.60
2017,08,18,12,56,18.50
2017,08,18,12,57,18.40
2017,08,18,12,58,18.40
2017,08,18,12,59,18.40
2017,08,18,13,00,18.30
2017,08,18,13,01,18.30
2017,08,18,13,02,18.20
2017,08,18,13,03,18.20
2017,08,18,13,04,18.20
2017,08,18,13,05,18.20
2017,08,18,13,06,18.20
2017,08,18,13,07,18.20
2017,08,18,13,08,18.20
2017,08,18,13,09,18.20
2017,08,18,13,10,18.20
2017,08,18,13,11,18.20
2017,08,18,13,12,18.20
2017,08,18,13,13,18.10
2017,08,18,13,14,18.10
2017,08,18,13,15,18.10
2017,08,18,13,16,18.10
2017,08,18,13,17,18.00
2017,08,18,13,18,17.90
2017,08,18,13,19,17.90
2017,08,18,13,20,17.80
2017,08,18,13,21,17.80
2017,08,18,13,22,17.80
2017,08,18,13,23,17.80
2017,08,18,13,24,17.80
2017,08,18,13,25,17.80
2017,08,18,13,26,17.80
2017,08,18,13,27,17.80
2017,08,18,13,28,17.80
2017,08,18,13,29,17.80
2017,08,18,13,30,17.80
2017,08,18,13,31,17.80
2017,08,18,13,32,17.80
2017,08,18,13,33,17.80
2017,08,18,13,34,17.80
2017,08,18,13,35,17.80
2017,08,18,13,36,17.80
2017,08,18,13,37,17.90
2017,08,18,13,38,17.90
2017,08,18,13,39,17.90
2017,08,18,13,40,18.00
2017,08,18,13,41,18.10
2017,08,18,13,42,18.20
2017,08,18,13,43,18.30
2017,08,18,13,44,18.30
2017,08,18,13,45,18.40
2017,08,18,13,46,18.40
2017,08,18,13,47,18.50
2017,08,18,13,48,18.50
2017,08,18,13,49,18.60
2017,08,18,13,50,18.60
2017,08,18,13,51,18.50
2017,08,18,13,52,18.50
2017,08,18,13,53,18.50
2017,08,18,13,54,18.50
2017,08,18,13,55,18.50
2017,08,18,13,56,18.50
2017,08,18,13,57,18.60
2017,08,18,13,58,18.60
2017,08,18,13,59,18.60
2017,08,18,14,00,18.70
2017,08,18,14,01,18.80
2017,08,18,14,02,18.90
2017,08,18,14,03,18.90
2017,08,18,14,04,18.90
2017,08,18,14,05,18.90
2017,08,18,14,06,18.90
2017,08,18,14,07,18.90
2017,08,18,14,08,18.90
2017,08,18,14,09,18.90
2017,08,18,14,10,19.00
2017,08,18,14,11,19.00
2017,08,18,14,12,19.10
2017,08,18,14,13,19.10
2017,08,18,14,14,19.20
2017,08,18,14,15,19.20
2017,08,18,14,16,19.20
2017,08,18,14,17,19.20
2017,08,18,14,18,19.20
2017,08,18,14,19,19.20
2017,08,18,14,20,19.30
2017,08,18,14,21,19.40
2017,08,18,14,22,19.40
2017,08,18,14,23,19.50
2017,08,18,14,24,19.50
2017,08,18,14,25,19.60
2017,08,18,14,26,19.60
2017,08,18,14,27,19.70
2017,08,18,14,28,19.70
2017,08,18,14,29,19.70
2017,08,18,14,30,19.70
2017,08,18,14,31,19.70
2017,08,18,14,32,19.70
2017,08,18,14,33,19.70
2017,08,18,14,34,19.70
2017,08,18,14,35,19.70
2017,08,18,14,36,19.70
2017,08,18,14,37,19.80
2017,08,18,14,38,19.80
2017,08,18,14,39,19.70
2017,08,18,14,40,19.70
2017,08,18,14,41,19.70
2017,08,18,14,42,19.70
2017,08,18,14,43,19.60
2017,08,18,14,44,19.60
2017,08,18,14,45,19.60
2017,08,18,14,46,19.60
2017,08,18,14,47,19.60
2017,08,18,14,48,19.60
2017,08,18,14,49,19.70
2017,08,18,14,50,19.70
2017,08,18,14,51,19.70
2017,08,18,14,52,19.70
2017,08,18,14,53,19.70
2017,08,18,14,54,19.80
2017,08,18,14,55,19.80
2017,08,18,14,56,19.90
2017,08,18,14,57,19.90
2017,08,18,14,58,19.90
2017,08,18,14,59,19.90
2017,08,18,15,00,19.90
2017,08,18,15,01,19.80
2017,08,18,15,02,19.80
2017,08,18,15,03,19.70
2017,08,18,15,04,19.70
2017,08,18,15,05,19.70
2017,08,18,15,06,19.70
2017,08,18,15,07,19.70
2017,08,18,15,08,19.60
2017,08,18,15,09,19.60
2017,08,18,15,10,19.60
2017,08,18,15,11,19.60
2017,08,18,15,12,19.70
2017,08,18,15,13,19.80
2017,08,18,15,14,19.80
2017,08,18,15,15,19.90
2017,08,18,15,16,20.00
2017,08,18,15,17,20.10
2017,08,18,15,18,20.10
2017,08,18,15,19,20.10
2017,08,18,15,20,20.10
2017,08,18,15,21,20.10
2017,08,18,15,22,20.10
2017,08,18,15,23,20.20
2017,08,18,15,24,20.20
2017,08,18,15,25,20.20
2017,08,18,15,26,20.10
2017,08,18,15,27,20.10
2017,08,18,15,28,20.10
2017,08,18,15,29,20.10
2017,08,18,15,30,20.10
2017,08,18,15,31,20.20
2017,08,18,15,32,20.20
2017,08,18,15,33,20.10
2017,08,18,15,34,20.10
2017,08,18,15,35,20.10
2017,08,18,15,36,20.00
2017,08,18,15,37,20.00
2017,08,18,15,38,20.00
2017,08,18,15,39,20.00
2017,08,18,15,40,20.00
2017,08,18,15,41,20.10
2017,08,18,15,42,20.10
2017,08,18,15,43,20.10
2017,08,18,15,44,20.10
2017,08,18,15,45,20.20
2017,08,18,15,46,20.20
2017,08,18,15,47,20.30
2017,08,18,15,48,20.30
2017,08,18,15,49,20.40
2017,08,18,15,50,20.40
2017,08,18,15,51,20.50
2017,08,18,15,52,20.50
2017,08,18,15,53,20.50
2017,08,18,15,54,20.60
2017,08,18,15,55,20.50
2017,08,18,15,56,20.50
2017,08,18,15,57,20.40
2017,08,18,15,58,20.40
2017,08,18,15,59,20.30
2017,08,18,16,00,20.30
2017,08,18,16,01,20.20
2017,08,18,16,02,20.20
2017,08,18,16,03,20.20
2017,08,18,16,04,20.20
2017,08,18,16,05,20.20
2017,08,18,16,06,20.20
2017,08,18,16,07,20.20
2017,08,18,16,08,20.30
2017,08,18,16,09,20.30
2017,08,18,16,10,20.30
2017,08,18,16,11,20.30
2017,08,18,16,12,20.30
2017,08,18,16,13,20.30
2017,08,18,16,14,20.40
2017,08,18,16,15,20.50
2017,08,18,16,16,20.60
2017,08,18,16,17,20.60
2017,08,18,16,18,20.70
2017,08,18,16,19,20.70
2017,08,18,16,20,20.70
2017,08,18,16,21,20.70
2017,08,18,16,22,20.70
2017,08,18,16,23,20.60
2017,08,18,16,24,20.60
2017,08,18,16,25,20.60
2017,08,18,16,26,20.60
2017,08,18,16,27,20.60
2017,08,18,16,28,20.60
2017,08,18,16,29,20.60
2017,08,18,16,30,20.60
2017,08,18,16,31,20.60
2017,08,18,16,32,20.70
2017,08,18,16,33,20.70
2017,08,18,16,34,20.70
2017,08,18,16,35,20.70
2017,08,18,16,36,20.70
2017,08,18,16,37,20.80
2017,08,18,16,38,20.80
2017,08,18,16,39,20.90
2017,08,18,16,40,20.90
2017,08,18,16,41,20.90
2017,08,18,16,42,20.90
2017,08,18,16,43,20.90
2017,08,18,16,44,20.90
2017,08,18,16,45,20.90
2017,08,18,16,46,20.90
2017,08,18,16,47,20.90
2017,08,18,16,48,20.90
2017,08,18,16,49,20.80
2017,08,18,16,50,20.80
2017,08,18,16,51,20.70
2017,08,18,16,52,20.70
2017,08,18,16,53,20.70
2017,08,18,16,54,20.70
2017,08,18,16,55,20.70
2017,08,18,16,56,20.70
2017,08,18,16,57,20.70
2017,08,18,16,58,20.70
2017,08,18,16,59,20.70
2017,08,18,17,00,20.70
2017,08,18,17,01,20.70
2017,08,18,17,02,20.70
2017,08,18,17,03,20.60
2017,08,18,17,04,20.60
2017,08,18,17,05,20.60
2017,08,18,17,06,20.60
2017,08,18,17,07,20.50
2017,08,18,17,08,20.50
2017,08,18,17,09,20.50
2017,08,18,17,10,20.60
2017,08,18,17,11,20.60
2017,08,18,17,12,20.60
2017,08,18,17,13,20.60
2017,08,18,17,14,20.60
2017,08,18,17,15,20.70
2017,08,18,17,16,20.70
2017,08,18,17,17,20.70
2017,08,18,17,18,20.70
2017,08,18,17,19,20.80